This is the latest recevied weather packets stored in our database for station/object I8ZSE-10. If no packets are shown the sender has not sent any weather packets the latest 10 day(s).
| Time | Temp. | Humidity | Pressure | Rain* | Wind** | Luminosity | Snow |
|---|---|---|---|---|---|---|---|
| 1788661230 | 19.44° C | 49% | - | 0 mm | - | - | - |
| 1788660630 | 19.44° C | 50% | - | 0 mm | - | - | - |
| 1788660030 | 19.44° C | 49% | - | 0 mm | - | - | - |
| 1788659430 | 20° C | 47% | - | 0 mm | - | - | - |
| 1788658830 | 20.56° C | 49% | - | 0 mm | - | - | - |
| 1788658230 | 20.56° C | 47% | - | 0 mm | - | - | - |
| 1788657630 | 20.56° C | 48% | - | 0 mm | - | - | - |
| 1788657030 | 20.56° C | 50% | - | 0 mm | - | - | - |
| 1788656430 | 20.56° C | 52% | - | 0 mm | - | - | - |
| 1788655830 | 20.56° C | 54% | - | 0 mm | - | - | - |
| 1788655230 | 20.56° C | 55% | - | 0 mm | - | - | - |
| 1788654630 | 20.56° C | 52% | - | 0 mm | - | - | - |
| 1788654030 | 21.11° C | 52% | - | 0 mm | - | - | - |
| 1788653430 | 21.67° C | 51% | - | 0 mm | - | - | - |
| 1788652830 | 21.67° C | 52% | - | 0 mm | - | - | - |
| 1788652231 | 22.22° C | 47% | - | 0 mm | - | - | - |
| 1788651330 | 21.67° C | 52% | - | 0 mm | - | - | - |
| 1788650730 | 22.22° C | 51% | - | 0 mm | - | - | - |
| 1788650130 | 22.22° C | 48% | - | 0 mm | - | - | - |
| 1788649530 | 22.78° C | 45% | - | 0 mm | - | - | - |
| 1788648930 | 22.78° C | 46% | - | 0 mm | - | - | - |
| 1788648330 | 22.78° C | 48% | - | 0 mm | - | - | - |
| 1788647730 | 23.33° C | 47% | - | 0 mm | - | - | - |
| 1788647130 | 23.33° C | 48% | - | 0 mm | - | - | - |
| 1788646530 | 23.33° C | 50% | - | 0 mm | - | - | - |
* Rain latest hour (hover to see other rain measurements)
** Current wind speed in m/s (hover to see current wind gust speed)